Time,TemperatureF,DewpointF,PressureIn,WindDirection,WindDirectionDegrees,WindSpeedMPH,WindSpeedGustMPH,Humidity,HourlyPrecipIn,Conditions,Clouds,dailyrainin,SoftwareType,DateUTC
2013-11-04 00:02:00,27.2,26.0,31.39,North,360,0.0,0.0,95,0.00,RA,RA,0.00,WeatherDisplay:10.37,2013-11-04 05:02:00,
2013-11-04 00:07:00,27.1,25.9,31.39,North,360,0.0,0.0,95,0.00,RA,RA,0.00,WeatherDisplay:10.37,2013-11-04 05:07:00,
2013-11-04 00:12:00,27.1,25.9,31.39,North,360,0.0,0.0,95,0.00,CLR,CLR,0.00,WeatherDisplay:10.37,2013-11-04 05:12:00,
2013-11-04 00:17:00,27.1,25.8,31.40,North,360,0.0,0.0,95,0.00,CLR,CLR,0.00,WeatherDisplay:10.37,2013-11-04 05:17:00,
2013-11-04 00:22:00,27.0,25.8,31.40,North,360,0.0,0.0,95,0.00,CLR,CLR,0.00,WeatherDisplay:10.37,2013-11-04 05:22:00,
2013-11-04 00:27:00,26.9,25.7,31.40,North,360,0.0,0.0,95,0.00,CLR,CLR,0.00,WeatherDisplay:10.37,2013-11-04 05:27:00,
2013-11-04 00:32:00,26.9,25.7,31.40,North,360,0.0,0.0,95,0.00,CLR,CLR,0.00,WeatherDisplay:10.37,2013-11-04 05:32:00,
2013-11-04 00:37:00,26.9,25.7,31.41,North,360,0.0,0.0,95,0.00,CLR,CLR,0.00,WeatherDisplay:10.37,2013-11-04 05:37:00,
2013-11-04 00:42:00,26.8,25.6,31.41,North,360,0.0,0.0,95,0.00,CLR,CLR,0.00,WeatherDisplay:10.37,2013-11-04 05:42:00,
2013-11-04 00:47:00,26.7,25.5,31.41,North,360,0.0,0.0,95,0.00,CLR,CLR,0.00,WeatherDisplay:10.37,2013-11-04 05:47:00,
2013-11-04 00:52:00,26.7,25.5,31.41,North,360,0.0,0.0,95,0.00,CLR,CLR,0.00,WeatherDisplay:10.37,2013-11-04 05:52:00,
2013-11-04 00:57:00,26.6,25.4,31.41,North,360,0.0,0.0,95,0.00,CLR,CLR,0.00,WeatherDisplay:10.37,2013-11-04 05:57:00,
2013-11-04 01:02:00,26.5,25.3,31.41,North,360,0.0,0.0,95,0.00,CLR,CLR,0.00,WeatherDisplay:10.37,2013-11-04 06:02:00,
2013-11-04 01:07:00,26.4,25.2,31.41,North,360,0.0,0.0,95,0.00,CLR,CLR,0.00,WeatherDisplay:10.37,2013-11-04 06:07:00,
2013-11-04 01:12:00,26.4,25.1,31.41,North,360,0.0,0.0,95,0.00,CLR,CLR,0.00,WeatherDisplay:10.37,2013-11-04 06:12:00,
2013-11-04 01:17:00,26.3,25.1,31.41,North,360,0.0,0.0,95,0.00,CLR,CLR,0.00,WeatherDisplay:10.37,2013-11-04 06:17:00,
2013-11-04 01:22:00,26.3,25.1,31.41,North,360,0.0,0.0,95,0.00,CLR,CLR,0.00,WeatherDisplay:10.37,2013-11-04 06:22:00,
2013-11-04 01:27:00,26.2,25.0,31.41,North,360,0.0,0.0,95,0.00,CLR,CLR,0.00,WeatherDisplay:10.37,2013-11-04 06:27:00,
2013-11-04 01:32:00,26.2,24.9,31.41,North,360,0.0,0.0,95,0.00,CLR,CLR,0.00,WeatherDisplay:10.37,2013-11-04 06:32:00,
2013-11-04 01:37:00,26.1,24.9,31.41,North,360,0.0,0.0,95,0.00,CLR,CLR,0.00,WeatherDisplay:10.37,2013-11-04 06:37:00,
2013-11-04 01:42:00,26.1,24.9,31.41,North,360,0.0,0.0,95,0.00,CLR,CLR,0.00,WeatherDisplay:10.37,2013-11-04 06:42:00,
2013-11-04 01:47:00,26.0,24.8,31.42,North,360,0.0,0.0,95,0.00,CLR,CLR,0.00,WeatherDisplay:10.37,2013-11-04 06:47:00,
2013-11-04 01:52:00,25.9,24.7,31.42,North,360,0.0,0.0,95,0.00,CLR,CLR,0.00,WeatherDisplay:10.37,2013-11-04 06:52:00,
2013-11-04 01:57:00,25.9,24.7,31.42,North,360,0.0,0.0,95,0.00,CLR,CLR,0.00,WeatherDisplay:10.37,2013-11-04 06:57:00,
2013-11-04 02:02:00,25.9,24.7,31.42,North,360,0.0,0.0,95,0.00,CLR,CLR,0.00,WeatherDisplay:10.37,2013-11-04 07:02:00,
2013-11-04 02:07:00,25.8,24.6,31.42,North,360,0.0,0.0,95,0.00,CLR,CLR,0.00,WeatherDisplay:10.37,2013-11-04 07:07:00,
2013-11-04 02:12:00,25.8,24.6,31.41,North,360,0.0,0.0,95,0.00,CLR,CLR,0.00,WeatherDisplay:10.37,2013-11-04 07:12:00,
2013-11-04 02:17:00,25.8,24.6,31.41,North,360,0.0,0.0,95,0.00,CLR,CLR,0.00,WeatherDisplay:10.37,2013-11-04 07:17:00,
2013-11-04 02:22:00,25.7,24.5,31.41,North,360,0.0,0.0,95,0.00,CLR,CLR,0.00,WeatherDisplay:10.37,2013-11-04 07:22:00,
2013-11-04 02:27:00,25.6,24.3,31.41,North,360,0.0,0.0,95,0.00,CLR,CLR,0.00,WeatherDisplay:10.37,2013-11-04 07:27:00,
2013-11-04 02:32:00,25.5,24.3,31.41,North,360,0.0,0.0,95,0.00,CLR,CLR,0.00,WeatherDisplay:10.37,2013-11-04 07:32:00,
2013-11-04 02:37:00,25.4,24.2,31.42,North,360,0.0,0.0,95,0.00,CLR,CLR,0.00,WeatherDisplay:10.37,2013-11-04 07:37:00,
2013-11-04 02:42:00,25.3,24.0,31.42,North,360,0.0,0.0,95,0.00,CLR,CLR,0.00,WeatherDisplay:10.37,2013-11-04 07:42:00,
2013-11-04 02:47:00,25.3,24.1,31.42,North,360,0.0,0.0,95,0.00,CLR,CLR,0.00,WeatherDisplay:10.37,2013-11-04 07:47:00,
2013-11-04 02:52:00,25.2,24.0,31.42,North,360,0.0,0.0,95,0.00,CLR,CLR,0.00,WeatherDisplay:10.37,2013-11-04 07:52:00,
2013-11-04 02:57:00,25.2,24.0,31.42,North,360,0.0,0.0,95,0.00,CLR,CLR,0.00,WeatherDisplay:10.37,2013-11-04 07:57:00,
2013-11-04 03:02:00,25.2,24.0,31.42,North,360,0.0,0.0,95,0.00,CLR,CLR,0.00,WeatherDisplay:10.37,2013-11-04 08:02:00,
2013-11-04 03:07:00,25.1,23.9,31.42,North,360,0.0,0.0,95,0.00,CLR,CLR,0.00,WeatherDisplay:10.37,2013-11-04 08:07:00,
2013-11-04 03:12:00,25.0,23.8,31.42,North,360,0.0,0.0,95,0.00,CLR,CLR,0.00,WeatherDisplay:10.37,2013-11-04 08:12:00,
2013-11-04 03:17:00,25.0,23.8,31.42,North,360,0.0,0.0,95,0.00,CLR,CLR,0.00,WeatherDisplay:10.37,2013-11-04 08:17:00,
2013-11-04 03:22:00,24.9,23.7,31.43,North,360,0.0,0.0,95,0.00,CLR,CLR,0.00,WeatherDisplay:10.37,2013-11-04 08:22:00,
2013-11-04 03:27:00,24.9,23.7,31.42,North,360,0.0,0.0,95,0.00,CLR,CLR,0.00,WeatherDisplay:10.37,2013-11-04 08:27:00,
2013-11-04 03:32:00,24.9,23.7,31.42,North,360,0.0,0.0,95,0.00,CLR,CLR,0.00,WeatherDisplay:10.37,2013-11-04 08:32:00,
2013-11-04 03:37:00,24.8,23.6,31.42,North,360,0.0,0.0,95,0.00,CLR,CLR,0.00,WeatherDisplay:10.37,2013-11-04 08:37:00,
2013-11-04 03:42:00,24.7,23.5,31.41,North,360,0.0,0.0,95,0.00,CLR,CLR,0.00,WeatherDisplay:10.37,2013-11-04 08:42:00,
2013-11-04 03:47:00,24.6,23.4,31.42,North,360,0.0,0.0,95,0.00,CLR,CLR,0.00,WeatherDisplay:10.37,2013-11-04 08:47:00,
2013-11-04 03:52:00,24.6,23.4,31.42,North,360,0.0,0.0,95,0.00,CLR,CLR,0.00,WeatherDisplay:10.37,2013-11-04 08:52:00,
2013-11-04 03:57:00,24.5,23.3,31.41,North,360,0.0,0.0,95,0.00,CLR,CLR,0.00,WeatherDisplay:10.37,2013-11-04 08:57:00,
2013-11-04 04:02:00,24.6,23.6,31.41,North,360,0.0,0.0,96,0.00,CLR,CLR,0.00,WeatherDisplay:10.37,2013-11-04 09:02:00,
2013-11-04 04:07:00,24.8,23.8,31.42,North,360,0.0,0.0,96,0.00,CLR,CLR,0.00,WeatherDisplay:10.37,2013-11-04 09:07:00,
2013-11-04 04:12:00,25.1,24.1,31.42,North,360,0.0,0.0,96,0.00,CLR,CLR,0.00,WeatherDisplay:10.37,2013-11-04 09:12:00,
2013-11-04 04:17:00,25.4,24.5,31.42,North,360,0.0,1.0,96,0.00,CLR,CLR,0.00,WeatherDisplay:10.37,2013-11-04 09:17:00,
2013-11-04 04:22:00,25.8,24.8,31.43,North,360,0.0,0.0,96,0.00,CLR,CLR,0.00,WeatherDisplay:10.37,2013-11-04 09:22:00,
2013-11-04 04:27:00,25.9,24.9,31.43,North,360,0.0,0.0,96,0.00,CLR,CLR,0.00,WeatherDisplay:10.37,2013-11-04 09:27:00,
2013-11-04 04:32:00,26.0,25.0,31.43,North,360,0.0,0.0,96,0.00,CLR,CLR,0.00,WeatherDisplay:10.37,2013-11-04 09:32:00,
2013-11-04 04:37:00,26.0,25.0,31.43,North,360,0.0,0.0,96,0.00,CLR,CLR,0.00,WeatherDisplay:10.37,2013-11-04 09:37:00,
2013-11-04 04:42:00,25.9,24.9,31.43,North,360,0.0,0.0,96,0.00,CLR,CLR,0.00,WeatherDisplay:10.37,2013-11-04 09:42:00,
2013-11-04 04:47:00,25.7,24.7,31.43,North,360,0.0,0.0,96,0.00,CLR,CLR,0.00,WeatherDisplay:10.37,2013-11-04 09:47:00,
2013-11-04 04:52:00,25.6,24.4,31.43,North,360,0.0,0.0,95,0.00,CLR,CLR,0.00,WeatherDisplay:10.37,2013-11-04 09:52:00,
2013-11-04 04:57:00,25.5,24.3,31.43,North,360,0.0,0.0,95,0.00,CLR,CLR,0.00,WeatherDisplay:10.37,2013-11-04 09:57:00,
2013-11-04 05:02:00,25.6,24.6,31.43,North,360,0.0,0.0,96,0.00,CLR,CLR,0.00,WeatherDisplay:10.37,2013-11-04 10:02:00,
2013-11-04 05:07:00,25.7,24.7,31.43,North,360,0.0,0.0,96,0.00,CLR,CLR,0.00,WeatherDisplay:10.37,2013-11-04 10:07:00,
2013-11-04 05:12:00,25.7,24.7,31.44,North,360,0.0,0.0,96,0.00,CLR,CLR,0.00,WeatherDisplay:10.37,2013-11-04 10:12:00,
2013-11-04 05:17:00,25.7,24.8,31.44,North,360,0.0,0.0,96,0.00,CLR,CLR,0.00,WeatherDisplay:10.37,2013-11-04 10:17:00,
2013-11-04 05:22:00,25.7,24.7,31.44,North,360,0.0,0.0,96,0.00,CLR,CLR,0.00,WeatherDisplay:10.37,2013-11-04 10:22:00,
2013-11-04 05:27:00,25.7,24.5,31.44,North,360,0.0,1.0,95,0.00,CLR,CLR,0.00,WeatherDisplay:10.37,2013-11-04 10:27:00,
2013-11-04 05:32:00,25.7,24.7,31.44,North,360,0.0,0.0,96,0.00,CLR,CLR,0.00,WeatherDisplay:10.37,2013-11-04 10:32:00,
2013-11-04 05:37:00,25.7,24.5,31.44,North,360,0.0,0.0,95,0.00,CLR,CLR,0.00,WeatherDisplay:10.37,2013-11-04 10:37:00,
2013-11-04 05:42:00,25.6,24.4,31.44,North,360,0.0,0.0,95,0.00,CLR,CLR,0.00,WeatherDisplay:10.37,2013-11-04 10:42:00,
2013-11-04 05:47:00,25.6,24.4,31.44,North,360,0.0,0.0,95,0.00,CLR,CLR,0.00,WeatherDisplay:10.37,2013-11-04 10:47:00,
2013-11-04 05:52:00,25.4,24.2,31.45,North,360,0.0,0.0,95,0.00,CLR,CLR,0.00,WeatherDisplay:10.37,2013-11-04 10:52:00,
2013-11-04 05:57:00,25.3,24.0,31.45,North,360,0.0,0.0,95,0.00,CLR,CLR,0.00,WeatherDisplay:10.37,2013-11-04 10:57:00,
2013-11-04 06:02:00,25.1,23.9,31.44,North,360,0.0,0.0,95,0.00,CLR,CLR,0.00,WeatherDisplay:10.37,2013-11-04 11:02:00,
2013-11-04 06:07:00,25.0,23.7,31.43,North,360,0.0,0.0,95,0.00,CLR,CLR,0.00,WeatherDisplay:10.37,2013-11-04 11:07:00,
2013-11-04 06:12:00,24.8,23.6,31.43,North,360,0.0,0.0,95,0.00,CLR,CLR,0.00,WeatherDisplay:10.37,2013-11-04 11:12:00,
2013-11-04 06:17:00,24.7,23.4,31.44,North,360,0.0,0.0,95,0.00,CLR,CLR,0.00,WeatherDisplay:10.37,2013-11-04 11:17:00,
2013-11-04 06:22:00,24.7,23.5,31.44,NNW,332,0.0,2.0,95,0.00,CLR,CLR,0.00,WeatherDisplay:10.37,2013-11-04 11:22:00,
2013-11-04 06:27:00,25.0,24.0,31.44,SSW,209,0.0,0.0,96,0.00,CLR,CLR,0.00,WeatherDisplay:10.37,2013-11-04 11:27:00,
2013-11-04 06:32:00,25.1,24.1,31.44,SSW,209,0.0,0.0,96,0.00,CLR,CLR,0.00,WeatherDisplay:10.37,2013-11-04 11:32:00,
2013-11-04 06:37:00,25.2,24.2,31.44,SSW,209,0.0,0.0,96,0.00,CLR,CLR,0.00,WeatherDisplay:10.37,2013-11-04 11:37:00,
2013-11-04 06:42:00,25.1,24.1,31.44,SSW,209,0.0,2.0,96,0.00,CLR,CLR,0.00,WeatherDisplay:10.37,2013-11-04 11:42:00,
2013-11-04 06:47:00,25.1,23.9,31.44,SSW,209,0.0,0.0,95,0.00,CLR,CLR,0.00,WeatherDisplay:10.37,2013-11-04 11:47:00,
2013-11-04 06:52:00,25.1,23.9,31.44,SSW,209,0.0,0.0,95,0.00,CLR,CLR,0.00,WeatherDisplay:10.37,2013-11-04 11:52:00,
2013-11-04 06:57:00,25.2,24.2,31.45,SSW,209,0.0,0.0,96,0.00,CLR,CLR,0.00,WeatherDisplay:10.37,2013-11-04 11:57:00,
2013-11-04 07:02:00,25.4,24.4,31.45,SSW,209,0.0,0.0,96,0.00,CLR,CLR,0.00,WeatherDisplay:10.37,2013-11-04 12:02:00,
2013-11-04 07:07:00,25.4,24.4,31.46,SSW,209,0.0,2.0,96,0.00,CLR,CLR,0.00,WeatherDisplay:10.37,2013-11-04 12:07:00,
2013-11-04 07:12:00,25.5,24.5,31.45,SSW,209,0.0,0.0,96,0.00,CLR,CLR,0.00,WeatherDisplay:10.37,2013-11-04 12:12:00,
2013-11-04 07:17:00,25.5,24.3,31.45,SSW,209,0.0,0.0,95,0.00,CLR,CLR,0.00,WeatherDisplay:10.37,2013-11-04 12:17:00,
2013-11-04 07:22:00,25.5,24.3,31.45,SSW,209,0.0,0.0,95,0.00,CLR,CLR,0.00,WeatherDisplay:10.37,2013-11-04 12:22:00,
2013-11-04 07:27:00,25.5,24.3,31.45,SSW,209,0.0,0.0,95,0.00,CLR,CLR,0.00,WeatherDisplay:10.37,2013-11-04 12:27:00,
2013-11-04 07:32:00,25.5,24.3,31.45,SSW,209,0.0,0.0,95,0.00,CLR,CLR,0.00,WeatherDisplay:10.37,2013-11-04 12:32:00,
2013-11-04 07:37:00,25.6,24.4,31.45,SSW,209,0.0,0.0,95,0.00,CLR,CLR,0.00,WeatherDisplay:10.37,2013-11-04 12:37:00,
2013-11-04 07:42:00,25.7,24.5,31.45,SSW,209,0.0,0.0,95,0.00,CLR,CLR,0.00,WeatherDisplay:10.37,2013-11-04 12:42:00,
2013-11-04 07:47:00,25.8,24.8,31.46,SSW,209,0.0,0.0,96,0.00,CLR,CLR,0.00,WeatherDisplay:10.37,2013-11-04 12:47:00,
2013-11-04 07:52:00,26.1,25.1,31.47,SSW,209,0.0,0.0,96,0.00,CLR,CLR,0.00,WeatherDisplay:10.37,2013-11-04 12:52:00,
2013-11-04 07:57:00,26.3,25.3,31.47,SSW,209,0.0,0.0,96,0.00,CLR,CLR,0.00,WeatherDisplay:10.37,2013-11-04 12:57:00,
2013-11-04 08:02:00,26.6,25.6,31.47,SSW,209,0.0,0.0,96,0.00,CLR,CLR,0.00,WeatherDisplay:10.37,2013-11-04 13:02:00,
2013-11-04 08:07:00,26.8,25.8,31.47,SSW,209,0.0,0.0,96,0.00,CLR,CLR,0.00,WeatherDisplay:10.37,2013-11-04 13:07:00,
2013-11-04 08:12:00,27.0,26.0,31.47,SSW,209,0.0,0.0,96,0.00,CLR,CLR,0.00,WeatherDisplay:10.37,2013-11-04 13:12:00,
2013-11-04 08:17:00,27.2,26.2,31.46,SSW,209,0.0,0.0,96,0.00,CLR,CLR,0.00,WeatherDisplay:10.37,2013-11-04 13:17:00,
2013-11-04 08:22:00,27.5,26.5,31.46,SSW,209,0.0,0.0,96,0.00,CLR,CLR,0.00,WeatherDisplay:10.37,2013-11-04 13:22:00,
2013-11-04 08:27:00,27.7,26.7,31.46,SSW,209,0.0,0.0,96,0.00,CLR,CLR,0.00,WeatherDisplay:10.37,2013-11-04 13:27:00,
2013-11-04 08:32:00,27.9,26.9,31.46,SSW,209,0.0,0.0,96,0.00,CLR,CLR,0.00,WeatherDisplay:10.37,2013-11-04 13:32:00,
2013-11-04 08:37:00,28.2,27.2,31.46,SSW,209,0.0,0.0,96,0.00,CLR,CLR,0.00,WeatherDisplay:10.37,2013-11-04 13:37:00,
2013-11-04 08:42:00,28.5,27.5,31.46,SSW,209,0.0,0.0,96,0.00,CLR,CLR,0.00,WeatherDisplay:10.37,2013-11-04 13:42:00,
2013-11-04 08:47:00,28.7,27.7,31.45,SSW,209,0.0,0.0,96,0.00,CLR,CLR,0.00,WeatherDisplay:10.37,2013-11-04 13:47:00,
2013-11-04 08:52:00,29.0,27.7,31.45,SW,214,1.0,5.0,95,0.00,CLR,CLR,0.00,WeatherDisplay:10.37,2013-11-04 13:52:00,
2013-11-04 08:57:00,29.9,28.6,31.45,SE,140,0.0,4.0,95,0.01,RA,RA,0.01,WeatherDisplay:10.37,2013-11-04 13:57:00,
2013-11-04 09:02:00,30.7,29.4,31.45,ENE,61,1.0,5.0,95,0.00,RA,RA,0.01,WeatherDisplay:10.37,2013-11-04 14:02:00,
2013-11-04 09:07:00,31.4,29.4,31.45,ENE,73,0.0,5.0,92,0.00,CLR,CLR,0.01,WeatherDisplay:10.37,2013-11-04 14:07:00,
2013-11-04 09:12:00,31.9,28.8,31.45,SE,140,1.0,7.0,88,0.00,CLR,CLR,0.01,WeatherDisplay:10.37,2013-11-04 14:12:00,
2013-11-04 09:17:00,32.4,28.7,31.45,SSE,149,2.0,6.0,86,0.00,CLR,CLR,0.01,WeatherDisplay:10.37,2013-11-04 14:17:00,
2013-11-04 09:22:00,32.7,28.1,31.45,SE,143,2.0,7.0,83,0.00,CLR,CLR,0.01,WeatherDisplay:10.37,2013-11-04 14:22:00,
2013-11-04 09:27:00,33.1,28.5,31.45,SSE,161,0.0,0.0,83,0.00,CLR,CLR,0.01,WeatherDisplay:10.37,2013-11-04 14:27:00,
2013-11-04 09:32:00,33.4,28.2,31.45,South,175,1.0,4.0,81,0.00,CLR,CLR,0.01,WeatherDisplay:10.37,2013-11-04 14:32:00,
2013-11-04 09:37:00,33.7,27.9,31.45,SSE,152,2.0,6.0,79,0.00,CLR,CLR,0.01,WeatherDisplay:10.37,2013-11-04 14:37:00,
2013-11-04 09:42:00,33.9,27.4,31.45,SE,145,0.0,9.0,77,0.00,CLR,CLR,0.01,WeatherDisplay:10.37,2013-11-04 14:42:00,
2013-11-04 09:47:00,34.2,27.7,31.44,SSE,147,2.0,5.0,77,0.00,CLR,CLR,0.01,WeatherDisplay:10.37,2013-11-04 14:47:00,
2013-11-04 09:52:00,34.5,27.4,31.44,ESE,117,1.0,6.0,75,0.00,CLR,CLR,0.01,WeatherDisplay:10.37,2013-11-04 14:52:00,
2013-11-04 09:57:00,34.8,27.4,31.44,ESE,122,1.0,10.0,74,0.00,CLR,CLR,0.01,WeatherDisplay:10.37,2013-11-04 14:57:00,
2013-11-04 10:02:00,35.0,27.2,31.44,SE,143,0.0,5.0,73,0.00,CLR,CLR,0.01,WeatherDisplay:10.37,2013-11-04 15:02:00,
2013-11-04 10:07:00,35.3,27.5,31.44,SE,138,0.0,6.0,73,0.00,CLR,CLR,0.01,WeatherDisplay:10.37,2013-11-04 15:07:00,
2013-11-04 10:12:00,35.6,27.8,31.43,SE,127,0.0,8.0,73,0.00,CLR,CLR,0.01,WeatherDisplay:10.37,2013-11-04 15:12:00,
2013-11-04 10:17:00,35.8,27.0,31.43,SE,124,2.0,8.0,70,0.00,CLR,CLR,0.01,WeatherDisplay:10.37,2013-11-04 15:17:00,
2013-11-04 10:22:00,36.0,26.8,31.43,ESE,115,1.0,12.0,69,0.00,CLR,CLR,0.01,WeatherDisplay:10.37,2013-11-04 15:22:00,
2013-11-04 10:27:00,36.2,26.3,31.43,ESE,115,2.0,12.0,67,0.00,CLR,CLR,0.01,WeatherDisplay:10.37,2013-11-04 15:27:00,
2013-11-04 10:32:00,36.3,26.0,31.43,SE,133,5.0,8.0,66,0.00,CLR,CLR,0.01,WeatherDisplay:10.37,2013-11-04 15:32:00,
2013-11-04 10:37:00,36.5,26.2,31.43,SSE,148,5.0,9.0,66,0.00,CLR,CLR,0.01,WeatherDisplay:10.37,2013-11-04 15:37:00,
2013-11-04 10:42:00,36.6,24.8,31.43,SE,132,6.0,10.0,62,0.00,CLR,CLR,0.01,WeatherDisplay:10.37,2013-11-04 15:42:00,
2013-11-04 10:47:00,36.9,25.5,31.44,ESE,116,3.0,12.0,63,0.00,CLR,CLR,0.01,WeatherDisplay:10.37,2013-11-04 15:47:00,
2013-11-04 10:52:00,37.1,25.7,31.44,SE,138,5.0,9.0,63,0.00,CLR,CLR,0.01,WeatherDisplay:10.37,2013-11-04 15:52:00,
2013-11-04 10:57:00,37.5,26.8,31.43,SSE,150,0.0,6.0,65,0.00,CLR,CLR,0.01,WeatherDisplay:10.37,2013-11-04 15:57:00,
2013-11-04 11:02:00,37.7,25.8,31.43,SSE,161,5.0,12.0,62,0.00,CLR,CLR,0.01,WeatherDisplay:10.37,2013-11-04 16:02:00,
2013-11-04 11:07:00,37.8,25.5,31.43,SSE,152,3.0,8.0,61,0.00,CLR,CLR,0.01,WeatherDisplay:10.37,2013-11-04 16:07:00,
2013-11-04 11:12:00,38.0,25.7,31.42,SE,141,3.0,8.0,61,0.00,CLR,CLR,0.01,WeatherDisplay:10.37,2013-11-04 16:12:00,
2013-11-04 11:17:00,38.1,24.6,31.41,SE,130,8.0,14.0,58,0.00,CLR,CLR,0.01,WeatherDisplay:10.37,2013-11-04 16:17:00,
2013-11-04 11:22:00,38.2,24.3,31.41,ESE,121,2.0,11.0,57,0.00,CLR,CLR,0.01,WeatherDisplay:10.37,2013-11-04 16:22:00,
2013-11-04 11:27:00,38.3,24.4,31.40,SE,126,6.0,12.0,57,0.00,CLR,CLR,0.01,WeatherDisplay:10.37,2013-11-04 16:27:00,
2013-11-04 11:32:00,38.4,24.5,31.40,SE,133,3.0,9.0,57,0.00,CLR,CLR,0.01,WeatherDisplay:10.37,2013-11-04 16:32:00,
2013-11-04 11:37:00,38.6,24.2,31.40,SE,125,5.0,9.0,56,0.00,CLR,CLR,0.01,WeatherDisplay:10.37,2013-11-04 16:37:00,
2013-11-04 11:42:00,38.7,24.3,31.40,ESE,112,3.0,8.0,56,0.00,CLR,CLR,0.01,WeatherDisplay:10.37,2013-11-04 16:42:00,
2013-11-04 11:47:00,38.8,24.4,31.40,SE,133,2.0,8.0,56,0.00,CLR,CLR,0.01,WeatherDisplay:10.37,2013-11-04 16:47:00,
2013-11-04 11:52:00,38.9,23.7,31.39,SE,131,5.0,12.0,54,0.00,CLR,CLR,0.01,WeatherDisplay:10.37,2013-11-04 16:52:00,
2013-11-04 11:57:00,38.9,23.7,31.39,ESE,117,5.0,9.0,54,0.00,CLR,CLR,0.01,WeatherDisplay:10.37,2013-11-04 16:57:00,
2013-11-04 12:02:00,39.1,24.3,31.40,SE,134,1.0,9.0,55,0.00,CLR,CLR,0.01,WeatherDisplay:10.37,2013-11-04 17:02:00,
2013-11-04 12:07:00,39.4,25.0,31.40,SE,145,2.0,8.0,56,0.00,CLR,CLR,0.01,WeatherDisplay:10.37,2013-11-04 17:07:00,
2013-11-04 12:12:00,39.6,24.8,31.40,SE,138,2.0,8.0,55,0.00,CLR,CLR,0.01,WeatherDisplay:10.37,2013-11-04 17:12:00,
2013-11-04 12:17:00,39.7,23.0,31.40,SE,135,6.0,9.0,51,0.00,CLR,CLR,0.01,WeatherDisplay:10.37,2013-11-04 17:17:00,
2013-11-04 12:22:00,39.8,24.1,31.39,SE,129,1.0,10.0,53,0.00,CLR,CLR,0.01,WeatherDisplay:10.37,2013-11-04 17:22:00,
2013-11-04 12:27:00,40.0,22.8,31.39,ESE,115,5.0,12.0,50,0.00,CLR,CLR,0.01,WeatherDisplay:10.37,2013-11-04 17:27:00,
2013-11-04 12:32:00,40.0,22.8,31.39,ESE,105,5.0,12.0,50,0.00,CLR,CLR,0.01,WeatherDisplay:10.37,2013-11-04 17:32:00,
2013-11-04 12:37:00,40.2,24.0,31.38,SE,124,1.0,9.0,52,0.00,CLR,CLR,0.01,WeatherDisplay:10.37,2013-11-04 17:37:00,
2013-11-04 12:42:00,40.4,23.7,31.38,SE,131,0.0,9.0,51,0.00,CLR,CLR,0.01,WeatherDisplay:10.37,2013-11-04 17:42:00,
2013-11-04 12:52:00,40.6,23.4,31.38,SE,141,5.0,9.0,50,0.00,CLR,CLR,0.01,WeatherDisplay:10.37,2013-11-04 17:52:00,
2013-11-04 12:57:00,40.7,23.0,31.38,SE,143,5.0,12.0,49,0.00,CLR,CLR,0.01,WeatherDisplay:10.37,2013-11-04 17:57:00,
2013-11-04 13:02:00,40.7,22.5,31.38,SSE,150,3.0,8.0,48,0.00,CLR,CLR,0.01,WeatherDisplay:10.37,2013-11-04 18:02:00,
2013-11-04 13:07:00,41.0,22.8,31.38,SSE,148,3.0,8.0,48,0.00,CLR,CLR,0.01,WeatherDisplay:10.37,2013-11-04 18:07:00,
2013-11-04 13:12:00,41.3,24.0,31.38,SSE,151,7.0,9.0,50,0.00,CLR,CLR,0.01,WeatherDisplay:10.37,2013-11-04 18:12:00,
2013-11-04 13:17:00,41.6,23.8,31.38,SSE,150,5.0,8.0,49,0.00,CLR,CLR,0.01,WeatherDisplay:10.37,2013-11-04 18:17:00,
2013-11-04 13:22:00,41.9,23.6,31.38,SE,138,2.0,12.0,48,0.00,CLR,CLR,0.01,WeatherDisplay:10.37,2013-11-04 18:22:00,
2013-11-04 13:27:00,42.1,24.3,31.37,SE,126,1.0,9.0,49,0.00,CLR,CLR,0.01,WeatherDisplay:10.37,2013-11-04 18:27:00,
2013-11-04 13:32:00,42.3,24.5,31.37,ESE,112,3.0,9.0,49,0.00,CLR,CLR,0.01,WeatherDisplay:10.37,2013-11-04 18:32:00,
2013-11-04 13:37:00,42.5,23.2,31.37,ESE,119,3.0,9.0,46,0.00,CLR,CLR,0.01,WeatherDisplay:10.37,2013-11-04 18:37:00,
2013-11-04 13:42:00,42.5,22.1,31.36,SE,136,6.0,14.0,44,0.00,CLR,CLR,0.01,WeatherDisplay:10.37,2013-11-04 18:42:00,
2013-11-04 13:47:00,42.5,23.2,31.36,SE,127,6.0,12.0,46,0.00,CLR,CLR,0.01,WeatherDisplay:10.37,2013-11-04 18:47:00,
2013-11-04 13:52:00,42.6,23.2,31.35,SE,127,3.0,12.0,46,0.00,CLR,CLR,0.01,WeatherDisplay:10.37,2013-11-04 18:52:00,
2013-11-04 14:02:00,42.7,23.3,31.35,SE,132,3.0,12.0,46,0.00,CLR,CLR,0.01,WeatherDisplay:10.37,2013-11-04 19:02:00,
2013-11-04 14:07:00,42.9,23.0,31.34,SE,135,2.0,10.0,45,0.00,CLR,CLR,0.01,WeatherDisplay:10.37,2013-11-04 19:07:00,
2013-11-04 14:12:00,43.4,26.0,31.34,SE,129,2.0,6.0,50,0.00,CLR,CLR,0.01,WeatherDisplay:10.37,2013-11-04 19:12:00,
2013-11-04 14:17:00,43.7,24.2,31.33,ESE,102,1.0,7.0,46,0.00,CLR,CLR,0.01,WeatherDisplay:10.37,2013-11-04 19:17:00,
2013-11-04 14:22:00,43.6,22.5,31.34,ESE,109,3.0,8.0,43,0.00,CLR,CLR,0.01,WeatherDisplay:10.37,2013-11-04 19:22:00,
2013-11-04 14:27:00,43.6,23.6,31.33,ESE,116,1.0,7.0,45,0.00,CLR,CLR,0.01,WeatherDisplay:10.37,2013-11-04 19:27:00,
2013-11-04 14:32:00,43.6,23.1,31.34,SE,130,1.0,8.0,44,0.00,CLR,CLR,0.01,WeatherDisplay:10.37,2013-11-04 19:32:00,
2013-11-04 14:37:00,43.7,22.1,31.34,ESE,122,1.0,8.0,42,0.00,CLR,CLR,0.01,WeatherDisplay:10.37,2013-11-04 19:37:00,
2013-11-04 14:42:00,43.9,21.7,31.33,ESE,108,1.0,9.0,41,0.00,CLR,CLR,0.01,WeatherDisplay:10.37,2013-11-04 19:42:00,
2013-11-04 14:47:00,44.1,21.9,31.33,ESE,109,5.0,8.0,41,0.00,CLR,CLR,0.01,WeatherDisplay:10.37,2013-11-04 19:47:00,
2013-11-04 14:52:00,44.2,21.4,31.33,East,97,2.0,10.0,40,0.00,CLR,CLR,0.01,WeatherDisplay:10.37,2013-11-04 19:52:00,
2013-11-04 14:57:00,44.6,22.4,31.33,East,98,5.0,8.0,41,0.00,CLR,CLR,0.01,WeatherDisplay:10.37,2013-11-04 19:57:00,
2013-11-04 15:02:00,45.1,22.8,31.34,ESE,107,3.0,8.0,41,0.00,CLR,CLR,0.01,WeatherDisplay:10.37,2013-11-04 20:02:00,
2013-11-04 15:07:00,45.4,21.9,31.33,ESE,107,1.0,6.0,39,0.00,CLR,CLR,0.01,WeatherDisplay:10.37,2013-11-04 20:07:00,
2013-11-04 15:12:00,45.5,22.0,31.33,SE,127,2.0,12.0,39,0.00,CLR,CLR,0.01,WeatherDisplay:10.37,2013-11-04 20:12:00,
2013-11-04 15:17:00,45.2,22.2,31.32,ESE,121,1.0,12.0,40,0.00,CLR,CLR,0.01,WeatherDisplay:10.37,2013-11-04 20:17:00,
2013-11-04 15:22:00,44.8,21.3,31.33,SE,124,2.0,8.0,39,0.00,CLR,CLR,0.01,WeatherDisplay:10.37,2013-11-04 20:22:00,
2013-11-04 15:27:00,44.4,22.1,31.33,SE,139,6.0,8.0,41,0.00,CLR,CLR,0.01,WeatherDisplay:10.37,2013-11-04 20:27:00,
2013-11-04 15:32:00,44.2,21.3,31.33,SE,143,3.0,8.0,40,0.00,CLR,CLR,0.01,WeatherDisplay:10.37,2013-11-04 20:32:00,
2013-11-04 15:37:00,44.1,21.3,31.33,SE,135,2.0,7.0,40,0.00,CLR,CLR,0.01,WeatherDisplay:10.37,2013-11-04 20:37:00,
2013-11-04 15:42:00,44.1,21.3,31.33,ESE,123,3.0,7.0,40,0.00,CLR,CLR,0.01,WeatherDisplay:10.37,2013-11-04 20:42:00,
2013-11-04 15:47:00,44.1,21.3,31.33,ESE,118,3.0,8.0,40,0.00,CLR,CLR,0.01,WeatherDisplay:10.37,2013-11-04 20:47:00,
2013-11-04 15:52:00,44.3,23.2,31.32,ESE,102,0.0,7.0,43,0.00,CLR,CLR,0.01,WeatherDisplay:10.37,2013-11-04 20:52:00,
2013-11-04 15:57:00,44.5,22.8,31.32,ESE,114,2.0,8.0,42,0.00,CLR,CLR,0.01,WeatherDisplay:10.37,2013-11-04 20:57:00,
2013-11-04 16:02:00,44.8,23.1,31.32,SE,124,3.0,9.0,42,0.00,CLR,CLR,0.01,WeatherDisplay:10.37,2013-11-04 21:02:00,
2013-11-04 16:07:00,45.0,22.1,31.32,ESE,111,1.0,8.0,40,0.00,CLR,CLR,0.01,WeatherDisplay:10.37,2013-11-04 21:07:00,
2013-11-04 16:12:00,45.1,21.6,31.32,ESE,121,3.0,6.0,39,0.00,CLR,CLR,0.01,WeatherDisplay:10.37,2013-11-04 21:12:00,
2013-11-04 16:17:00,45.2,22.3,31.32,SSE,152,5.0,8.0,40,0.00,CLR,CLR,0.01,WeatherDisplay:10.37,2013-11-04 21:17:00,
2013-11-04 16:22:00,44.9,20.8,31.32,SE,137,5.0,9.0,38,0.00,CLR,CLR,0.01,WeatherDisplay:10.37,2013-11-04 21:22:00,
2013-11-04 16:27:00,44.6,20.5,31.31,SE,127,2.0,8.0,38,0.00,CLR,CLR,0.01,WeatherDisplay:10.37,2013-11-04 21:27:00,
2013-11-04 16:32:00,44.5,21.0,31.31,SE,134,1.0,7.0,39,0.00,CLR,CLR,0.01,WeatherDisplay:10.37,2013-11-04 21:32:00,
2013-11-04 16:37:00,44.2,23.1,31.31,SSE,158,0.0,7.0,43,0.00,CLR,CLR,0.01,WeatherDisplay:10.37,2013-11-04 21:37:00,
2013-11-04 16:42:00,43.8,21.6,31.32,SSE,153,0.0,6.0,41,0.00,CLR,CLR,0.01,WeatherDisplay:10.37,2013-11-04 21:42:00,
2013-11-04 16:47:00,43.6,22.5,31.32,ESE,122,0.0,5.0,43,0.00,CLR,CLR,0.01,WeatherDisplay:10.37,2013-11-04 21:47:00,
2013-11-04 16:52:00,43.3,21.7,31.32,ESE,108,0.0,5.0,42,0.00,CLR,CLR,0.01,WeatherDisplay:10.37,2013-11-04 21:52:00,
2013-11-04 16:57:00,43.2,21.6,31.32,SE,125,0.0,5.0,42,0.00,CLR,CLR,0.01,WeatherDisplay:10.37,2013-11-04 21:57:00,
2013-11-04 17:02:00,43.0,21.5,31.32,SSE,148,1.0,5.0,42,0.00,CLR,CLR,0.01,WeatherDisplay:10.37,2013-11-04 22:02:00,
2013-11-04 17:07:00,42.9,21.9,31.32,SSE,152,0.0,5.0,43,0.00,CLR,CLR,0.01,WeatherDisplay:10.37,2013-11-04 22:07:00,
2013-11-04 17:12:00,42.7,21.2,31.33,SE,143,0.0,5.0,42,0.00,CLR,CLR,0.01,WeatherDisplay:10.37,2013-11-04 22:12:00,
2013-11-04 17:17:00,42.7,21.7,31.32,SE,125,0.0,4.0,43,0.00,CLR,CLR,0.01,WeatherDisplay:10.37,2013-11-04 22:17:00,
2013-11-04 17:22:00,42.5,21.0,31.32,SE,127,0.0,4.0,42,0.00,CLR,CLR,0.01,WeatherDisplay:10.37,2013-11-04 22:22:00,
2013-11-04 17:27:00,42.4,22.0,31.32,SE,139,0.0,0.0,44,0.00,CLR,CLR,0.01,WeatherDisplay:10.37,2013-11-04 22:27:00,
2013-11-04 17:32:00,42.2,22.3,31.32,SE,145,1.0,4.0,45,0.00,CLR,CLR,0.01,WeatherDisplay:10.37,2013-11-04 22:32:00,
2013-11-04 17:37:00,42.0,22.2,31.33,SSE,156,1.0,5.0,45,0.00,CLR,CLR,0.01,WeatherDisplay:10.37,2013-11-04 22:37:00,
2013-11-04 17:42:00,42.0,22.2,31.32,South,169,3.0,6.0,45,0.00,CLR,CLR,0.01,WeatherDisplay:10.37,2013-11-04 22:42:00,
2013-11-04 17:47:00,41.9,21.5,31.32,SSE,151,0.0,6.0,44,0.00,CLR,CLR,0.01,WeatherDisplay:10.37,2013-11-04 22:47:00,
2013-11-04 17:52:00,41.8,22.0,31.33,SE,126,0.0,6.0,45,0.00,CLR,CLR,0.01,WeatherDisplay:10.37,2013-11-04 22:52:00,
2013-11-04 17:57:00,41.8,22.0,31.32,East,100,0.0,1.0,45,0.00,CLR,CLR,0.01,WeatherDisplay:10.37,2013-11-04 22:57:00,
2013-11-04 18:02:00,41.7,22.4,31.32,East,91,0.0,5.0,46,0.00,CLR,CLR,0.01,WeatherDisplay:10.37,2013-11-04 23:02:00,
2013-11-04 18:07:00,41.7,22.4,31.32,ESE,110,0.0,4.0,46,0.00,CLR,CLR,0.01,WeatherDisplay:10.37,2013-11-04 23:07:00,
2013-11-04 18:12:00,41.6,22.3,31.32,SE,131,2.0,8.0,46,0.00,CLR,CLR,0.01,WeatherDisplay:10.37,2013-11-04 23:12:00,
2013-11-04 18:17:00,41.6,22.9,31.33,SSE,151,0.0,6.0,47,0.00,CLR,CLR,0.01,WeatherDisplay:10.37,2013-11-04 23:17:00,
2013-11-04 18:22:00,41.6,23.8,31.33,SSE,157,2.0,7.0,49,0.00,CLR,CLR,0.01,WeatherDisplay:10.37,2013-11-04 23:22:00,
2013-11-04 18:27:00,41.5,24.2,31.33,SSE,156,1.0,7.0,50,0.00,CLR,CLR,0.01,WeatherDisplay:10.37,2013-11-04 23:27:00,
2013-11-04 18:32:00,41.5,24.2,31.34,SSE,163,3.0,5.0,50,0.00,CLR,CLR,0.01,WeatherDisplay:10.37,2013-11-04 23:32:00,
2013-11-04 18:37:00,41.4,23.6,31.33,SSE,163,2.0,5.0,49,0.00,CLR,CLR,0.01,WeatherDisplay:10.37,2013-11-04 23:37:00,
2013-11-04 18:42:00,41.4,23.6,31.33,SSE,165,1.0,5.0,49,0.00,CLR,CLR,0.01,WeatherDisplay:10.37,2013-11-04 23:42:00,
2013-11-04 18:47:00,41.2,23.0,31.33,SSE,148,3.0,6.0,48,0.00,CLR,CLR,0.01,WeatherDisplay:10.37,2013-11-04 23:47:00,
2013-11-04 18:52:00,41.1,23.4,31.32,SSE,147,2.0,6.0,49,0.00,CLR,CLR,0.01,WeatherDisplay:10.37,2013-11-04 23:52:00,
2013-11-04 18:57:00,41.0,23.3,31.32,SE,136,2.0,5.0,49,0.00,CLR,CLR,0.01,WeatherDisplay:10.37,2013-11-04 23:57:00,
2013-11-04 19:02:00,41.0,23.8,31.32,SE,133,0.0,4.0,50,0.00,CLR,CLR,0.01,WeatherDisplay:10.37,2013-11-05 00:02:00,
2013-11-04 19:07:00,40.9,25.1,31.32,SSE,158,0.0,3.0,53,0.00,CLR,CLR,0.01,WeatherDisplay:10.37,2013-11-05 00:07:00,
2013-11-04 19:12:00,40.7,24.9,31.32,South,183,1.0,3.0,53,0.00,CLR,CLR,0.01,WeatherDisplay:10.37,2013-11-05 00:12:00,
2013-11-04 19:17:00,40.7,24.4,31.32,South,183,1.0,5.0,52,0.00,CLR,CLR,0.01,WeatherDisplay:10.37,2013-11-05 00:17:00,
2013-11-04 19:22:00,40.7,24.9,31.33,South,178,0.0,5.0,53,0.00,CLR,CLR,0.01,WeatherDisplay:10.37,2013-11-05 00:22:00,
2013-11-04 19:27:00,40.6,26.1,31.33,South,178,5.0,7.0,56,0.00,CLR,CLR,0.01,WeatherDisplay:10.37,2013-11-05 00:27:00,
2013-11-04 19:32:00,40.4,25.5,31.33,South,178,0.0,4.0,55,0.00,CLR,CLR,0.01,WeatherDisplay:10.37,2013-11-05 00:32:00,
2013-11-04 19:37:00,40.4,25.5,31.33,South,178,1.0,5.0,55,0.00,CLR,CLR,0.01,WeatherDisplay:10.37,2013-11-05 00:37:00,
2013-11-04 19:42:00,40.4,24.6,31.32,South,178,1.0,4.0,53,0.00,CLR,CLR,0.01,WeatherDisplay:10.37,2013-11-05 00:42:00,
2013-11-04 19:47:00,40.4,24.6,31.32,South,178,0.0,4.0,53,0.00,CLR,CLR,0.01,WeatherDisplay:10.37,2013-11-05 00:47:00,
2013-11-04 19:52:00,40.3,24.1,31.32,South,178,0.0,3.0,52,0.00,CLR,CLR,0.01,WeatherDisplay:10.37,2013-11-05 00:52:00,
2013-11-04 19:57:00,40.2,24.0,31.32,South,178,0.0,0.0,52,0.00,CLR,CLR,0.01,WeatherDisplay:10.37,2013-11-05 00:57:00,
2013-11-04 20:02:00,40.2,25.3,31.32,South,178,3.0,5.0,55,0.00,CLR,CLR,0.01,WeatherDisplay:10.37,2013-11-05 01:02:00,
2013-11-04 20:07:00,39.9,25.9,31.32,South,178,2.0,6.0,57,0.00,CLR,CLR,0.01,WeatherDisplay:10.37,2013-11-05 01:07:00,
2013-11-04 20:12:00,39.9,25.0,31.31,SSE,157,0.0,6.0,55,0.00,CLR,CLR,0.01,WeatherDisplay:10.37,2013-11-05 01:12:00,
2013-11-04 20:17:00,40.0,24.2,31.31,SE,140,0.0,0.0,53,0.00,CLR,CLR,0.01,WeatherDisplay:10.37,2013-11-05 01:17:00,
2013-11-04 20:22:00,40.1,24.8,31.31,SE,142,1.0,5.0,54,0.00,CLR,CLR,0.01,WeatherDisplay:10.37,2013-11-05 01:22:00,
2013-11-04 20:27:00,40.3,24.5,31.31,SSE,156,0.0,5.0,53,0.00,CLR,CLR,0.01,WeatherDisplay:10.37,2013-11-05 01:27:00,
2013-11-04 20:32:00,40.3,25.0,31.31,SSE,167,0.0,6.0,54,0.00,CLR,CLR,0.01,WeatherDisplay:10.37,2013-11-05 01:32:00,
2013-11-04 20:37:00,40.3,25.4,31.31,SSE,167,3.0,5.0,55,0.00,CLR,CLR,0.01,WeatherDisplay:10.37,2013-11-05 01:37:00,
2013-11-04 20:42:00,40.3,26.3,31.31,SSE,159,3.0,6.0,57,0.00,CLR,CLR,0.01,WeatherDisplay:10.37,2013-11-05 01:42:00,
2013-11-04 20:47:00,40.1,26.5,31.31,SSE,157,2.0,5.0,58,0.00,CLR,CLR,0.01,WeatherDisplay:10.37,2013-11-05 01:47:00,
2013-11-04 20:52:00,40.0,25.6,31.31,SSE,158,0.0,5.0,56,0.00,CLR,CLR,0.01,WeatherDisplay:10.37,2013-11-05 01:52:00,
2013-11-04 20:57:00,40.0,25.1,31.31,SSE,159,0.0,2.0,55,0.00,CLR,CLR,0.01,WeatherDisplay:10.37,2013-11-05 01:57:00,
2013-11-04 21:02:00,40.0,25.6,31.31,SSE,159,0.0,0.0,56,0.00,CLR,CLR,0.01,WeatherDisplay:10.37,2013-11-05 02:02:00,
2013-11-04 21:07:00,40.0,26.4,31.31,SSE,164,1.0,5.0,58,0.00,CLR,CLR,0.01,WeatherDisplay:10.37,2013-11-05 02:07:00,
2013-11-04 21:12:00,39.9,26.3,31.31,South,170,0.0,4.0,58,0.00,CLR,CLR,0.01,WeatherDisplay:10.37,2013-11-05 02:12:00,
2013-11-04 21:17:00,39.9,26.7,31.32,SSE,162,0.0,5.0,59,0.00,CLR,CLR,0.01,WeatherDisplay:10.37,2013-11-05 02:17:00,
2013-11-04 21:22:00,39.8,26.6,31.32,SSE,161,0.0,0.0,59,0.00,CLR,CLR,0.01,WeatherDisplay:10.37,2013-11-05 02:22:00,
2013-11-04 21:27:00,39.8,25.8,31.32,SSE,161,0.0,2.0,57,0.00,CLR,CLR,0.01,WeatherDisplay:10.37,2013-11-05 02:27:00,
2013-11-04 21:32:00,39.9,25.9,31.32,SSE,161,1.0,5.0,57,0.00,CLR,CLR,0.01,WeatherDisplay:10.37,2013-11-05 02:32:00,
2013-11-04 21:37:00,40.0,26.0,31.32,SSE,166,3.0,6.0,57,0.00,CLR,CLR,0.01,WeatherDisplay:10.37,2013-11-05 02:37:00,
2013-11-04 21:42:00,40.1,27.7,31.32,South,169,0.0,5.0,61,0.00,CLR,CLR,0.01,WeatherDisplay:10.37,2013-11-05 02:42:00,
2013-11-04 21:47:00,40.0,26.4,31.32,South,170,1.0,4.0,58,0.00,CLR,CLR,0.01,WeatherDisplay:10.37,2013-11-05 02:47:00,
2013-11-04 21:52:00,40.1,25.6,31.32,South,170,0.0,4.0,56,0.00,CLR,CLR,0.01,WeatherDisplay:10.37,2013-11-05 02:52:00,
2013-11-04 21:57:00,40.1,26.1,31.32,South,170,0.0,0.0,57,0.00,CLR,CLR,0.01,WeatherDisplay:10.37,2013-11-05 02:57:00,
2013-11-04 22:02:00,40.1,26.1,31.32,South,170,0.0,0.0,57,0.00,CLR,CLR,0.01,WeatherDisplay:10.37,2013-11-05 03:02:00,
2013-11-04 22:07:00,40.0,26.0,31.32,South,170,0.0,1.0,57,0.00,CLR,CLR,0.01,WeatherDisplay:10.37,2013-11-05 03:07:00,
2013-11-04 22:12:00,39.9,27.9,31.32,South,170,0.0,0.0,62,0.00,CLR,CLR,0.01,WeatherDisplay:10.37,2013-11-05 03:12:00,
2013-11-04 22:17:00,39.5,30.2,31.33,South,170,0.0,0.0,69,0.00,CLR,CLR,0.01,WeatherDisplay:10.37,2013-11-05 03:17:00,
2013-11-04 22:22:00,39.1,30.5,31.32,South,170,0.0,0.0,71,0.00,CLR,CLR,0.01,WeatherDisplay:10.37,2013-11-05 03:22:00,
2013-11-04 22:27:00,38.7,31.1,31.32,South,170,0.0,0.0,74,0.00,CLR,CLR,0.01,WeatherDisplay:10.37,2013-11-05 03:27:00,
2013-11-04 22:32:00,38.3,31.1,31.32,South,170,0.0,0.0,75,0.00,CLR,CLR,0.01,WeatherDisplay:10.37,2013-11-05 03:32:00,
2013-11-04 22:37:00,38.0,31.4,31.32,South,170,0.0,0.0,77,0.00,CLR,CLR,0.01,WeatherDisplay:10.37,2013-11-05 03:37:00,
2013-11-04 22:42:00,37.8,31.6,31.31,South,170,0.0,0.0,78,0.00,CLR,CLR,0.01,WeatherDisplay:10.37,2013-11-05 03:42:00,
2013-11-04 22:47:00,37.6,31.3,31.31,South,170,0.0,0.0,78,0.00,CLR,CLR,0.01,WeatherDisplay:10.37,2013-11-05 03:47:00,
2013-11-04 22:52:00,37.4,31.5,31.31,South,170,0.0,0.0,79,0.00,CLR,CLR,0.01,WeatherDisplay:10.37,2013-11-05 03:52:00,
2013-11-04 22:57:00,37.1,31.8,31.32,South,170,0.0,0.0,81,0.00,CLR,CLR,0.01,WeatherDisplay:10.37,2013-11-05 03:57:00,
2013-11-04 23:02:00,36.9,32.2,31.32,South,170,0.0,0.0,83,0.00,CLR,CLR,0.01,WeatherDisplay:10.37,2013-11-05 04:02:00,
2013-11-04 23:07:00,36.6,31.9,31.31,South,170,0.0,0.0,83,0.00,CLR,CLR,0.01,WeatherDisplay:10.37,2013-11-05 04:07:00,
2013-11-04 23:12:00,36.5,31.8,31.32,South,170,0.0,0.0,83,0.00,CLR,CLR,0.01,WeatherDisplay:10.37,2013-11-05 04:12:00,
2013-11-04 23:17:00,36.4,31.7,31.32,South,170,0.0,0.0,83,0.00,CLR,CLR,0.01,WeatherDisplay:10.37,2013-11-05 04:17:00,
2013-11-04 23:22:00,36.4,31.7,31.32,South,170,0.0,0.0,83,0.00,CLR,CLR,0.01,WeatherDisplay:10.37,2013-11-05 04:22:00,
2013-11-04 23:27:00,36.4,32.1,31.32,South,170,0.0,0.0,84,0.00,CLR,CLR,0.01,WeatherDisplay:10.37,2013-11-05 04:27:00,
2013-11-04 23:32:00,36.5,32.4,31.31,South,170,0.0,0.0,85,0.00,CLR,CLR,0.01,WeatherDisplay:10.37,2013-11-05 04:32:00,
2013-11-04 23:37:00,36.5,32.1,31.31,South,170,0.0,0.0,84,0.00,CLR,CLR,0.01,WeatherDisplay:10.37,2013-11-05 04:37:00,
2013-11-04 23:42:00,36.6,32.5,31.31,South,170,0.0,0.0,85,0.00,CLR,CLR,0.01,WeatherDisplay:10.37,2013-11-05 04:42:00,
2013-11-04 23:47:00,36.6,32.5,31.31,South,170,0.0,0.0,85,0.00,CLR,CLR,0.01,WeatherDisplay:10.37,2013-11-05 04:47:00,
2013-11-04 23:52:00,36.6,32.5,31.31,South,170,0.0,0.0,85,0.00,CLR,CLR,0.01,WeatherDisplay:10.37,2013-11-05 04:52:00,
2013-11-04 23:57:00,36.6,32.5,31.31,South,170,0.0,0.0,85,0.00,CLR,CLR,0.01,WeatherDisplay:10.37,2013-11-05 04:57:00,